EDJA

Memmingen Airport

Airport
ICAO code
EDJA
Summary
ICAO Region
EUR
ICAO Territory
Location

Memmingen,

Coordinates
47° 59' 19" N , 10° 14' 21" E
KCC
Airport CFIT
Altimeter Temperature Error Correction
Metar
EDJA 250420Z 16004KT CAVOK 06/06 Q1019

Description

Regional airport serving Memmingen, Germany.

Climatology

Temperate Marine climate/Oceanic climate (Köppen climate classification Cfb) - Moderately cool summer and comparatively warm winter.

Runways

Designator Length Width Surface Rops
6/24 2981 30 ASP Yes/Yes

SKYbrary Partners:

Safety knowledge contributed by: